Location: Karlskoga
(59.3269°N, 14.5116°E)
Time: 14:20:06
(UTC+01:00)

ISS - Pass Details

Date: 06 December 2021
Orbit: 413 x 422 km, 51.6° (Epoch: 18 January)

Event Time Altitude Azimuth Distance (km) Brightness Sun altitude
Rises 16:15:17 0° 261° (W) 2,387 1.5 -7.8°
Reaches altitude 10° 16:17:50 10° 242° (WSW) 1,518 0.8 -8.0°
Maximum altitude 16:20:14 18° 197° (SSW) 1,115 -0.9 -8.3°
Drops below altitude 10° 16:22:38 10° 152° (SSE) 1,512 -0.9 -8.6°
Enters shadow 16:27:33 -7° 125° (SE) 3,288 0.5 -9.1°
